Opportunities

To know the detailed description of a Notification, please click on the Notification Ref. link on each row. To know more details of the post such as Qualification required, Experience requirement, Scale of Pay, Max Age, etc. please click on button, which is shown against each post (on the right side of the table, beside 'Apply Now' button). Then proceed after reading the instructions.

Sl.No. Company Notification Date Notification Ref. Vac. Type Vac. ID Vacancy Name No of Vac. Appl. Fee Appl. Start Date Appl. End Date Status
 
1 KMRL 12 Apr 2017 KMRL/HR/20170402 Contract 174 JGM (Civil) 1 ₹500/- 12 Apr 2017 10:00 am 30 Apr 2017 11:59 pm  
1 to 1 of 1 Records
Results per page
Sl.No. Company Notification Date Notification Ref. Vac. Type Vac. ID Vacancy Name No of Vacancies Appl. Start Date Appl. End Date
 
1 KMWT 01 Apr 2017 KMRL/HR/20170401 Regular 173 DGM (Water Transport) 1 01 Apr 2017 10:00 am 17 Apr 2017 11:59 pm      Under Process
2 KMRL 15 Mar 2017 KMRL/HR/20170301 Regular 172 DGM (Track) 1 15 Mar 2017 8:00 am 29 Mar 2017 11:59 pm      Under Process
3 KMRL 08 Feb 2017 KMRL/HR/20170201 Regular 170 Executive Director 1 08 Feb 2017 8:00 am 22 Feb 2017 11:59 pm      Under Process
4 KMRL 08 Feb 2017 KMRL/HR/20170202 Regular 171 GM (Water Transport) 1 08 Feb 2017 8:00 am 22 Feb 2017 11:59 pm      Under Process
5 KMRL 14 Dec 2016 KMRL/HR/20161202 Regular 162 SDGM (P & S) 1 14 Dec 2016 12:00 am 28 Dec 2016 11:59 pm      Under Process
6 KMRL 01 Dec 2016 KMRL/HR/20161201 Contract 151 MGR (UTP) 1 01 Dec 2016 12:00 am 15 Dec 2016 11:59 pm      Under Process
7 KMRL 01 Dec 2016 KMRL/HR/20161201 Contract 152 AM (UTP) 1 01 Dec 2016 12:00 am 15 Dec 2016 11:59 pm      Under Process
8 KMWT 07 Sep 2016 KMRL/HR/20160901 Contract 122 AM (Environment) 1 07 Sep 2016 10:00 am 27 Sep 2016 11:59 pm      Under Process
9 KMRL 21 Jul 2016 KMRL/HR/20160701 Regular 83 DGM/SDGM (Energy) 1 21 Jul 2016 10:00 am 10 Aug 2016 11:59 pm      Under Process
10 KMRL 21 Jul 2016 KMRL/HR/20160701 Regular 91 AM/MGR (Co-ordination) 1 21 Jul 2016 10:00 am 10 Aug 2016 11:59 pm      Under Process
1 to 10 of 10 Records
Results per page
Sl.No. Company Notification Date Notification Ref. Vac. Type Vac. ID Vacancy Name No of Vacancies Appl. Start Date Appl. End Date
  
1 KMRL 10 Jan 2017 KMRL/HR/20170101 Regular 164 JGM (Power & Traction) 1 10 Jan 2017 11:45 pm 25 Jan 2017 11:59 pm      None found suitable
2 KMRL 10 Jan 2017 KMRL/HR/20170101 Regular 165 Legal Officer 1 10 Jan 2017 11:59 pm 25 Jan 2017 11:59 pm      Selected
3 KMRL 11 Jan 2017 KMRL/HR/20170101 Regular 168 DGM (Telecom) 1 11 Jan 2017 12:01 am 25 Jan 2017 11:59 pm      Selected
4 KMRL 12 Jan 2017 KMRL/HR/20170101 Contract 169 MGR (Track) 1 12 Jan 2017 4:30 pm 25 Jan 2017 11:59 pm      Selected
5 KMRL 14 Dec 2016 KMRL/HR/20161202 Regular 163 DGM (Mktg) 1 14 Dec 2016 12:00 am 28 Dec 2016 11:59 pm      Selected
6 KMRL 23 Nov 2016 KMRL/HR/20161104 Contract 157 AGM (P&T) 1 23 Nov 2016 12:00 am 07 Dec 2016 11:59 pm      None found suitable
7 KMRL 23 Nov 2016 KMRL/HR/20161104 Contract 158 AGM (E&M) 1 23 Nov 2016 12:00 am 07 Dec 2016 11:59 pm      Selected
8 KMRL 23 Nov 2016 KMRL/HR/20161104 Contract 159 MGR (Track) 1 23 Nov 2016 12:00 am 07 Dec 2016 11:59 pm      None found suitable
9 KMRL 23 Nov 2016 KMRL/HR/20161104 Contract 160 Legal Officer 1 23 Nov 2016 12:00 am 07 Dec 2016 11:59 pm      None found suitable
10 KMRL 23 Nov 2016 KMRL/HR/20161104 Regular 161 GM (WT) 1 23 Nov 2016 12:00 am 07 Dec 2016 11:59 pm      None found suitable
1 to 10 of 140 Records
Results per page